Weather History for KMWO - June, 2013

Change the Weather History Date:

Thursday, June 27, 2013

  Actual Average (KDAY) Record (KDAY)
Temperature  
Mean Temperature 77 °F 73 °F  
Max Temperature 87 °F 83 °F 102 °F (1944)
Min Temperature 67 °F 64 °F 48 °F (1927)
Degree Days  
Heating Degree Days 0 0  
Month to date heating degree days 22  
Since 1 June heating degree days 22  
Since 1 July heating degree days 5642  
Cooling Degree Days 12 8  
Month to date cooling degree days 163  
Year to date cooling degree days 233  
Since 1 June cooling degree days 163  
Growing Degree Days 27 (Base 50)    
Moisture  
Dew Point 71 °F    
Average Humidity 89    
Maximum Humidity 100    
Minimum Humidity 66    
Precipitation  
Precipitation 0.00 in 0.13 in 3.23 in (1932)
Month to date precipitation 3.76  
Year to date precipitation 20.80  
Snow  
Snow 0.00 in 0.00 in 0.00 in ()
Month to date snowfall 0.0  
Since 1 June snowfall 0.0  
Since 1 July snowfall 23.3  
Snow Depth -    
Sea Level Pressure  
Sea Level Pressure 29.77 in    
Wind  
Wind Speed 7 mph (West)    
Max Wind Speed 15 mph    
Max Gust Speed 21 mph    
Visibility 9 miles    
Events Rain    
T = Trace of Precipitation, MM = Missing Value Source: NWS Daily Summary

Daily Weather History Graph

Daily Weather History Graph

Search for Another Location

Airport or City:

Trip Planner

Search our weather history database for the weather conditions in past years. The results will help you decide how hot, cold, wet, or windy it might be!

Date:

Astronomy

Jun. 27, 2013 Rise Set
Actual Time 6:12 AM EDT 9:09 PM EDT
Civil Twilight 5:39 AM EDT 9:41 PM EDT
Nautical Twilight 4:58 AM EDT 10:22 PM EDT
Astronomical Twilight 4:11 AM EDT 11:09 PM EDT
Moon No Moon Rise 11:11 AM EDT (6/27)
Length of Visible Light 16h 01m
Length of Day
14h 56m
Waning Gibbous, 76% of the Moon is Illuminated
Jun 27
Waning Gibbous
Jun 30
Last Quarter
Jul 8
New
Jul 15
First Quarter
Jul 22
Full

Hourly Weather History & Observations

Time (EDT) Temp. Heat Index Dew Point Humidity Pressure Visibility Wind Dir Wind Speed Gust Speed Precip Events Conditions
12:15 AM 70.2 °F - 70.2 °F 100% 29.82 in 10.0 mi SSW 10.4 mph - N/A   Overcast
12:35 AM 69.8 °F - 69.8 °F 100% 29.81 in 10.0 mi SSW 6.9 mph - N/A Rain Light Rain
12:55 AM 68.9 °F - 68.9 °F 100% 29.80 in 10.0 mi South 4.6 mph - N/A Rain Light Rain
1:15 AM 68.7 °F - 68.7 °F 100% 29.80 in 10.0 mi SW 3.5 mph - N/A   Overcast
1:35 AM 67.6 °F - 67.6 °F 100% 29.79 in 10.0 mi SSW 6.9 mph - N/A   Overcast
2:15 AM 68.4 °F - 68.4 °F 100% 29.80 in 10.0 mi SSW 8.1 mph - N/A   Overcast
2:35 AM 67.8 °F - 67.8 °F 100% 29.80 in 10.0 mi SW 6.9 mph - N/A   Overcast
2:55 AM 67.6 °F - 67.6 °F 100% 29.80 in 10.0 mi SW 6.9 mph - N/A   Mostly Cloudy
3:15 AM 67.6 °F - 67.6 °F 100% 29.80 in 7.0 mi SW 8.1 mph - N/A   Mostly Cloudy
3:35 AM 67.6 °F - 67.6 °F 100% 29.79 in 5.0 mi SW 5.8 mph - N/A   Overcast
3:55 AM 67.6 °F - 67.6 °F 100% 29.78 in 7.0 mi SW 8.1 mph - N/A   Overcast
4:15 AM 67.6 °F - 67.6 °F 100% 29.78 in 7.0 mi WSW 6.9 mph - N/A   Overcast
4:35 AM 67.6 °F - 67.6 °F 100% 29.78 in 10.0 mi SW 8.1 mph - N/A   Overcast
4:55 AM 67.6 °F - 67.6 °F 100% 29.78 in 10.0 mi SW 5.8 mph - N/A   Overcast
5:15 AM 67.6 °F - 67.6 °F 100% 29.78 in 7.0 mi SW 5.8 mph - N/A   Overcast
5:35 AM 67.6 °F - 67.6 °F 100% 29.78 in 7.0 mi SW 6.9 mph - N/A   Overcast
5:55 AM 67.6 °F - 67.6 °F 100% 29.78 in 3.0 mi WSW 4.6 mph - N/A   Overcast
6:15 AM 67.6 °F - 67.6 °F 100% 29.79 in 3.0 mi SW 4.6 mph - N/A   Overcast
6:35 AM 67.6 °F - 67.6 °F 100% 29.79 in 3.0 mi SW 4.6 mph - N/A   Overcast
6:55 AM 67.6 °F - 67.6 °F 100% 29.79 in 4.0 mi SW 3.5 mph - N/A   Overcast
7:15 AM 67.6 °F - 67.6 °F 100% 29.79 in 4.0 mi SW 5.8 mph - N/A   Overcast
7:35 AM 67.6 °F - 67.6 °F 100% 29.80 in 5.0 mi SW 5.8 mph - N/A   Overcast
7:55 AM 68.9 °F - 68.9 °F 100% 29.80 in 5.0 mi WSW 4.6 mph - N/A   Overcast
8:15 AM 69.1 °F - 69.1 °F 100% 29.79 in 4.0 mi WSW 4.6 mph - N/A   Overcast
8:35 AM 70.2 °F - 70.2 °F 100% 29.79 in 5.0 mi West 3.5 mph - N/A   Overcast
9:35 AM 72.7 °F - 72.7 °F 100% 29.79 in 10.0 mi West 4.6 mph - N/A   Overcast
9:55 AM 72.7 °F - 72.1 °F 98% 29.79 in 10.0 mi West 4.6 mph - N/A   Overcast
10:15 AM 72.7 °F - 71.8 °F 97% 29.79 in 10.0 mi WNW 5.8 mph - N/A   Overcast
10:35 AM 73.0 °F - 72.0 °F 96% 29.79 in 10.0 mi West 5.8 mph - N/A   Overcast
10:55 AM 72.9 °F - 71.6 °F 96% 29.79 in 7.0 mi West 6.9 mph - N/A   Overcast
11:15 AM 75.2 °F - 72.7 °F 92% 29.79 in 10.0 mi NW 5.8 mph - N/A   Overcast
11:35 AM 77.7 °F - 74.1 °F 89% 29.79 in 10.0 mi WNW 4.6 mph - N/A   Mostly Cloudy
11:55 AM 77.9 °F - 74.1 °F 88% 29.79 in 10.0 mi WNW 8.1 mph - N/A   Mostly Cloudy
12:15 PM 78.4 °F - 73.2 °F 84% 29.79 in 10.0 mi WNW 11.5 mph - N/A   Scattered Clouds
12:35 PM 78.4 °F - 73.2 °F 84% 29.79 in 10.0 mi NW 8.1 mph - N/A   Scattered Clouds
12:55 PM 80.1 °F 84.4 °F 73.4 °F 80% 29.78 in 10.0 mi NW 8.1 mph 16.1 mph N/A   Scattered Clouds
1:15 PM 80.1 °F 84.4 °F 73.2 °F 80% 29.78 in 10.0 mi West 6.9 mph - N/A   Scattered Clouds
1:35 PM 79.2 °F - 72.7 °F 80% 29.78 in 10.0 mi West 10.4 mph - N/A   Mostly Cloudy
1:55 PM 81.0 °F 85.6 °F 72.7 °F 76% 29.78 in 10.0 mi WNW 5.8 mph - N/A   Mostly Cloudy
2:15 PM 80.2 °F 84.6 °F 73.2 °F 79% 29.78 in 10.0 mi WNW 9.2 mph - N/A   Mostly Cloudy
2:35 PM 81.5 °F 86.5 °F 72.9 °F 75% 29.78 in 10.0 mi WNW 5.8 mph - N/A   Mostly Cloudy
2:55 PM 81.0 °F 86.0 °F 73.4 °F 78% 29.78 in 10.0 mi West 12.7 mph 17.3 mph N/A   Mostly Cloudy
3:15 PM 85.3 °F 94.6 °F 75.9 °F 73% 29.78 in 10.0 mi West 12.7 mph 16.1 mph N/A   Scattered Clouds
3:35 PM 87.6 °F 101.4 °F 78.4 °F 74% 29.78 in 10.0 mi WNW 8.1 mph - N/A   Clear
3:55 PM 84.6 °F 92.4 °F 74.7 °F 72% 29.77 in 10.0 mi WNW 9.2 mph - N/A   Scattered Clouds
4:15 PM 85.8 °F 95.5 °F 75.7 °F 72% 29.77 in 10.0 mi WNW 8.1 mph 18.4 mph N/A   Mostly Cloudy
4:35 PM 85.3 °F 93.0 °F 74.1 °F 69% 29.77 in 10.0 mi WNW 11.5 mph - N/A   Scattered Clouds
4:55 PM 87.8 °F 98.6 °F 75.9 °F 68% 29.77 in 10.0 mi West 12.7 mph - N/A   Scattered Clouds
5:15 PM 87.8 °F 98.1 °F 75.6 °F 67% 29.76 in 10.0 mi West 15.0 mph - N/A   Scattered Clouds
5:35 PM 85.3 °F 91.8 °F 72.9 °F 66% 29.75 in 10.0 mi WNW 11.5 mph 18.4 mph N/A   Scattered Clouds
5:55 PM 86.5 °F 95.5 °F 74.8 °F 68% 29.75 in 10.0 mi WNW 11.5 mph 19.6 mph N/A   Clear
6:15 PM 84.2 °F 90.6 °F 72.9 °F 69% 29.75 in 10.0 mi WNW 15.0 mph 20.7 mph N/A   Clear
6:35 PM 81.1 °F 85.2 °F 71.2 °F 72% 29.75 in 10.0 mi WNW 11.5 mph - N/A   Scattered Clouds
6:55 PM 80.2 °F 83.9 °F 71.4 °F 74% 29.75 in 10.0 mi WNW 6.9 mph - N/A   Scattered Clouds
7:15 PM 80.2 °F 84.2 °F 72.0 °F 76% 29.75 in 10.0 mi West 5.8 mph - N/A   Clear
7:35 PM 79.5 °F - 72.7 °F 79% 29.75 in 10.0 mi West 5.8 mph - N/A   Clear
7:55 PM 79.0 °F - 72.5 °F 80% 29.77 in 10.0 mi West 4.6 mph - N/A   Clear
8:15 PM 79.0 °F - 72.5 °F 80% 29.76 in 10.0 mi West 4.6 mph - N/A   Clear
8:35 PM 77.9 °F - 72.1 °F 82% 29.75 in 10.0 mi West 5.8 mph - N/A   Clear
8:55 PM 77.9 °F - 72.5 °F 83% 29.75 in 10.0 mi Calm Calm - N/A   Clear
9:15 PM 75.2 °F - 73.6 °F 95% 29.75 in 10.0 mi Calm Calm - N/A   Clear
9:35 PM 73.8 °F - 73.0 °F 98% 29.74 in 10.0 mi West 3.5 mph - N/A   Clear
9:55 PM 73.8 °F - 72.5 °F 96% 29.74 in 10.0 mi WSW 4.6 mph - N/A   Clear
10:15 PM 72.7 °F - 72.0 °F 98% 29.73 in 10.0 mi Calm Calm - N/A   Clear
10:35 PM 72.7 °F - 72.5 °F 99% 29.74 in 10.0 mi Calm Calm - N/A   Clear
10:55 PM 73.0 °F - 71.6 °F 95% 29.72 in 10.0 mi Calm Calm - N/A   Clear
11:15 PM 75.2 °F - 72.3 °F 91% 29.72 in 10.0 mi Calm Calm - N/A   Clear
11:35 PM 72.7 °F - 71.4 °F 96% 29.72 in 10.0 mi Calm Calm - N/A   Clear
11:55 PM 72.7 °F - 72.7 °F 100% 29.71 in 10.0 mi Calm Calm - N/A   Clear